Cambridge, MN

2:05 PM CST on February 21, 2018 (GMT -0600)
Cambridge Municipal

Weather History for KCBG - December, 2012

Change the Weather History Date:

Monday, December 24, 2012

  Actual Average Record
Temperature  
Mean Temperature 7 °F -  
Max Temperature 14 °F 20 °F 41 °F (1957)
Min Temperature 0 °F 1 °F -30 °F (1983)
Degree Days  
Heating Degree Days 58    
Moisture  
Dew Point 5 °F    
Average Humidity 81    
Maximum Humidity 92    
Minimum Humidity 67    
Precipitation  
Precipitation 0.00 in - - ()
Sea Level Pressure  
Sea Level Pressure 30.10 in    
Wind  
Wind Speed 5 mph (NNW)    
Max Wind Speed 13 mph    
Max Gust Speed 16 mph    
Visibility 10 miles    
Events Snow    
Averages and records for this station are not official NWS values.
T = Trace of Precipitation, MM = Missing Value Source: NWS Daily Summary

Daily Weather History Graph

Daily Weather History Graph

Search for Another Location

Airport or City:

Trip Planner

Search our weather history database for the weather conditions in past years. The results will help you decide how hot, cold, wet, or windy it might be!

Date:

Astronomy

Dec. 24, 2012 Rise Set
Actual Time 7:51 AM CST 4:34 PM CST
Civil Twilight 7:17 AM CST 5:08 PM CST
Nautical Twilight 6:39 AM CST 5:46 PM CST
Astronomical Twilight 6:03 AM CST 6:22 PM CST
Moon 2:05 PM CST (12/24) 4:26 AM CST (12/24)
Length of Visible Light 9h 50m
Length of Day
8h 42m
Waxing Gibbous, 88% of the Moon is Illuminated
Dec 24
Waxing Gibbous
Dec 28
Full
Jan 4
Last Quarter
Jan 11
New
Jan 18
First Quarter

Hourly Weather History & Observations

Time (CST) Temp. Windchill Dew Point Humidity Pressure Visibility Wind Dir Wind Speed Gust Speed Precip Events Conditions
12:15 AM 14.0 °F 6.5 °F 8.6 °F 79% 30.02 in 10.0 mi NNE 4.6 mph - N/A   Overcast
12:36 AM 14.0 °F 8.2 °F 8.6 °F 79% 30.01 in 10.0 mi North 3.5 mph - N/A   Overcast
12:56 AM 14.0 °F 8.2 °F 10.4 °F 86% 30.01 in 10.0 mi North 3.5 mph - N/A   Overcast
1:15 AM 14.0 °F 5.1 °F 8.6 °F 79% 30.00 in 10.0 mi North 5.8 mph - N/A   Overcast
1:36 AM 14.0 °F 8.2 °F 8.6 °F 79% 30.00 in 10.0 mi North 3.5 mph - N/A   Overcast
1:56 AM 14.0 °F 8.2 °F 8.6 °F 79% 30.00 in 10.0 mi North 3.5 mph - N/A   Overcast
2:15 AM 14.0 °F 8.2 °F 8.6 °F 79% 30.00 in 10.0 mi North 3.5 mph - N/A   Overcast
2:35 AM 14.0 °F - 8.6 °F 79% 30.01 in 10.0 mi Calm Calm - N/A   Overcast
2:56 AM 14.0 °F 8.2 °F 8.6 °F 79% 30.01 in 10.0 mi NNW 3.5 mph - N/A   Overcast
3:16 AM 12.2 °F - 8.6 °F 85% 30.01 in 10.0 mi Calm Calm - N/A   Overcast
3:35 AM 12.2 °F 4.3 °F 8.6 °F 85% 30.01 in 10.0 mi North 4.6 mph - N/A   Overcast
3:56 AM 12.2 °F 4.3 °F 8.6 °F 85% 30.01 in 10.0 mi NNW 4.6 mph - N/A   Overcast
4:16 AM 12.2 °F 4.3 °F 8.6 °F 85% 30.01 in 10.0 mi NNW 4.6 mph - N/A   Overcast
4:34 AM 12.2 °F 6.1 °F 8.6 °F 85% 30.02 in 10.0 mi NNW 3.5 mph - N/A   Overcast
4:56 AM 12.2 °F 2.9 °F 8.6 °F 85% 30.01 in 10.0 mi North 5.8 mph - N/A   Overcast
5:16 AM 12.2 °F 4.3 °F 8.6 °F 85% 30.01 in 10.0 mi NNW 4.6 mph - N/A   Overcast
5:35 AM 12.2 °F 0.7 °F 8.6 °F 85% 30.01 in 10.0 mi North 8.1 mph - N/A   Overcast
5:56 AM 12.2 °F 4.3 °F 8.6 °F 85% 30.02 in 10.0 mi North 4.6 mph - N/A   Overcast
6:15 AM 12.2 °F 6.1 °F 8.6 °F 85% 30.02 in 10.0 mi NNW 3.5 mph - N/A   Mostly Cloudy
6:35 AM 12.2 °F 6.1 °F 8.6 °F 85% 30.02 in 10.0 mi North 3.5 mph - N/A   Mostly Cloudy
6:56 AM 12.2 °F 6.1 °F 8.6 °F 85% 30.03 in 10.0 mi NNW 3.5 mph - N/A   Overcast
7:15 AM 12.2 °F 6.1 °F 8.6 °F 85% 30.03 in 10.0 mi NNW 3.5 mph - N/A   Mostly Cloudy
7:36 AM 12.2 °F 2.9 °F 8.6 °F 85% 30.03 in 10.0 mi NNW 5.8 mph - N/A   Overcast
7:55 AM 12.2 °F 4.3 °F 8.6 °F 85% 30.03 in 10.0 mi NNW 4.6 mph - N/A   Overcast
8:16 AM 12.2 °F 2.9 °F 8.6 °F 85% 30.03 in 10.0 mi North 5.8 mph - N/A   Overcast
8:35 AM 12.2 °F 4.3 °F 8.6 °F 85% 30.03 in 10.0 mi North 4.6 mph - N/A   Overcast
8:55 AM 10.4 °F 2.2 °F 6.8 °F 85% 30.05 in 10.0 mi NNW 4.6 mph - N/A   Mostly Cloudy
9:16 AM 12.2 °F 1.7 °F 8.6 °F 85% 30.05 in 5.0 mi NNW 6.9 mph - N/A Snow Light Snow
9:35 AM 12.2 °F 0.7 °F 6.8 °F 79% 30.05 in 10.0 mi North 8.1 mph - N/A   Overcast
9:56 AM 12.2 °F 0.7 °F 6.8 °F 79% 30.06 in 10.0 mi North 8.1 mph - N/A   Scattered Clouds
10:16 AM 10.4 °F -2.4 °F 6.8 °F 85% 30.07 in 10.0 mi North 9.2 mph - N/A   Scattered Clouds
10:35 AM 10.4 °F -0.4 °F 5.0 °F 79% 30.08 in 10.0 mi NNW 6.9 mph - N/A   Scattered Clouds
10:56 AM 10.4 °F -2.4 °F 5.0 °F 79% 30.08 in 10.0 mi NNW 9.2 mph - N/A   Clear
11:15 AM 12.2 °F -1.0 °F 6.8 °F 79% 30.09 in 10.0 mi WNW 10.4 mph - N/A   Clear
11:36 AM 10.4 °F -4.8 °F 5.0 °F 79% 30.10 in 10.0 mi WNW 12.7 mph 16.1 mph N/A   Clear
11:56 AM 12.2 °F 0.7 °F 5.0 °F 73% 30.09 in 10.0 mi NW 8.1 mph - N/A   Clear
12:15 PM 12.2 °F 1.7 °F 6.8 °F 79% 30.09 in 10.0 mi NW 6.9 mph - N/A   Clear
12:35 PM 12.2 °F 0.7 °F 6.8 °F 79% 30.09 in 10.0 mi NW 8.1 mph - N/A   Clear
12:55 PM 12.2 °F -1.8 °F 5.0 °F 73% 30.09 in 10.0 mi WNW 11.5 mph - N/A   Clear
1:14 PM 12.2 °F -1.0 °F 5.0 °F 73% 30.09 in 10.0 mi NW 10.4 mph - N/A   Clear
1:35 PM 12.2 °F -0.2 °F 5.0 °F 73% 30.09 in 10.0 mi NNW 9.2 mph - N/A   Clear
1:56 PM 12.2 °F -1.0 °F 5.0 °F 73% 30.09 in 10.0 mi NNW 10.4 mph - N/A   Clear
2:16 PM 12.2 °F 0.7 °F 5.0 °F 73% 30.08 in 10.0 mi North 8.1 mph - N/A   Clear
2:35 PM 12.2 °F 1.7 °F 5.0 °F 73% 30.08 in 10.0 mi NNW 6.9 mph - N/A   Clear
2:56 PM 12.2 °F 2.9 °F 5.0 °F 73% 30.09 in 10.0 mi North 5.8 mph - N/A   Clear
3:16 PM 12.2 °F 2.9 °F 5.0 °F 73% 30.09 in 10.0 mi North 5.8 mph - N/A   Clear
3:35 PM 12.2 °F -0.2 °F 3.2 °F 67% 30.10 in 10.0 mi NW 9.2 mph - N/A   Clear
3:56 PM 10.4 °F -1.5 °F 3.2 °F 73% 30.10 in 10.0 mi NW 8.1 mph - N/A   Clear
4:15 PM 10.4 °F -0.4 °F 3.2 °F 73% 30.11 in 10.0 mi NNW 6.9 mph - N/A   Clear
4:35 PM 8.6 °F -2.6 °F 3.2 °F 79% 30.13 in 10.0 mi WNW 6.9 mph - N/A   Clear
4:55 PM 8.6 °F -1.3 °F 3.2 °F 79% 30.13 in 10.0 mi NW 5.8 mph - N/A   Clear
5:15 PM 8.6 °F -2.6 °F 3.2 °F 79% 30.13 in 10.0 mi NNW 6.9 mph - N/A   Clear
5:35 PM 8.6 °F -1.3 °F 3.2 °F 79% 30.14 in 10.0 mi NW 5.8 mph - N/A   Clear
5:55 PM 8.6 °F -1.3 °F 1.4 °F 73% 30.15 in 10.0 mi NW 5.8 mph - N/A   Clear
6:16 PM 6.8 °F -2.0 °F 1.4 °F 79% 30.16 in 10.0 mi NW 4.6 mph - N/A   Clear
6:35 PM 6.8 °F -3.5 °F 1.4 °F 79% 30.17 in 10.0 mi NW 5.8 mph - N/A   Clear
6:56 PM 6.8 °F -2.0 °F 1.4 °F 79% 30.18 in 10.0 mi NW 4.6 mph - N/A   Clear
7:16 PM 6.8 °F -3.5 °F 1.4 °F 79% 30.19 in 10.0 mi NW 5.8 mph - N/A   Clear
7:35 PM 5.0 °F -4.1 °F 1.4 °F 85% 30.19 in 10.0 mi NW 4.6 mph - N/A   Clear
7:56 PM 5.0 °F -5.6 °F 1.4 °F 85% 30.20 in 10.0 mi NW 5.8 mph - N/A   Clear
8:16 PM 5.0 °F -5.6 °F 1.4 °F 85% 30.21 in 10.0 mi NW 5.8 mph - N/A   Clear
8:36 PM 3.2 °F -6.2 °F -0.4 °F 85% 30.22 in 10.0 mi WNW 4.6 mph - N/A   Clear
8:55 PM 3.2 °F -6.2 °F -0.4 °F 85% 30.23 in 10.0 mi WNW 4.6 mph - N/A   Clear
9:16 PM 3.2 °F -6.2 °F -0.4 °F 85% 30.23 in 10.0 mi WNW 4.6 mph - N/A   Clear
9:35 PM 1.4 °F -6.2 °F -0.4 °F 92% 30.24 in 10.0 mi NW 3.5 mph - N/A   Clear
9:56 PM 1.4 °F - -2.2 °F 85% 30.25 in 10.0 mi Calm Calm - N/A   Clear
10:16 PM -0.4 °F - -2.2 °F 92% 30.25 in 10.0 mi Calm Calm - N/A   Clear
10:35 PM -0.4 °F - -2.2 °F 92% 30.26 in 10.0 mi Calm Calm - N/A   Clear
10:56 PM -0.4 °F -8.3 °F -2.2 °F 92% 30.26 in 10.0 mi WNW 3.5 mph - N/A   Clear
11:16 PM -0.4 °F - -2.2 °F 92% 30.26 in 10.0 mi Calm Calm - N/A   Clear
11:35 PM -0.4 °F -8.3 °F -2.2 °F 92% 30.26 in 10.0 mi NW 3.5 mph - N/A   Clear
11:56 PM -0.4 °F - -4.0 °F 85% 30.27 in 10.0 mi Calm Calm - N/A   Clear